TimeCEST,TemperatureF,Dew PointF,Humidity,Sea Level PressureIn,VisibilityMPH,Wind Direction,Wind SpeedMPH,Gust SpeedMPH,PrecipitationIn,Events,Conditions,WindDirDegrees,DateUTC
12:20 AM,59.0,50.0,72,29.92,6.2,SW,8.1,-,N/A,,Scattered Clouds,220,2013-05-25 22:20:00
12:50 AM,59.0,46.4,63,29.92,6.2,WSW,11.5,-,N/A,,Scattered Clouds,240,2013-05-25 22:50:00
1:20 AM,59.0,44.6,59,29.89,6.2,WSW,12.7,-,N/A,,Scattered Clouds,250,2013-05-25 23:20:00
1:50 AM,59.0,44.6,59,29.89,6.2,West,18.4,-,N/A,,Scattered Clouds,260,2013-05-25 23:50:00
2:20 AM,55.4,44.6,67,29.89,6.2,West,8.1,-,N/A,,Partly Cloudy,260,2013-05-26 00:20:00
2:50 AM,55.4,44.6,67,29.89,6.2,WSW,10.4,-,N/A,,Partly Cloudy,250,2013-05-26 00:50:00
3:20 AM,57.2,42.8,59,29.89,6.2,WSW,11.5,-,N/A,,Partly Cloudy,250,2013-05-26 01:20:00
3:50 AM,57.2,42.8,59,29.89,6.2,WSW,12.7,-,N/A,,Partly Cloudy,250,2013-05-26 01:50:00
4:20 AM,57.2,42.8,59,29.89,6.2,WSW,15.0,-,N/A,,Scattered Clouds,250,2013-05-26 02:20:00
4:50 AM,57.2,44.6,63,29.86,6.2,WSW,13.8,-,N/A,,Scattered Clouds,250,2013-05-26 02:50:00
5:20 AM,57.2,42.8,59,29.89,6.2,WSW,12.7,-,N/A,,Scattered Clouds,250,2013-05-26 03:20:00
5:50 AM,57.2,44.6,63,29.89,6.2,WSW,12.7,-,N/A,,Mostly Cloudy,250,2013-05-26 03:50:00
6:20 AM,59.0,44.6,59,29.89,6.2,WSW,17.3,-,N/A,,Scattered Clouds,250,2013-05-26 04:20:00
6:50 AM,59.0,46.4,63,29.89,6.2,West,15.0,-,N/A,,Scattered Clouds,260,2013-05-26 04:50:00
7:20 AM,59.0,44.6,59,29.89,6.2,West,17.3,-,N/A,,Scattered Clouds,260,2013-05-26 05:20:00
7:50 AM,60.8,42.8,52,29.89,6.2,West,15.0,-,N/A,,Partly Cloudy,260,2013-05-26 05:50:00
8:20 AM,60.8,46.4,59,29.89,6.2,West,16.1,-,N/A,Rain,Light Rain,260,2013-05-26 06:20:00
8:50 AM,59.0,46.4,63,29.89,6.2,West,16.1,-,N/A,Thunderstorm,Thunderstorm,260,2013-05-26 06:50:00
9:20 AM,59.0,46.4,63,29.92,6.2,West,15.0,-,N/A,,Mostly Cloudy,270,2013-05-26 07:20:00
9:50 AM,59.0,46.4,63,29.92,6.2,West,21.9,-,N/A,Rain,Light Rain,270,2013-05-26 07:50:00
10:20 AM,62.6,51.8,68,29.92,6.2,West,16.1,-,N/A,,Scattered Clouds,260,2013-05-26 08:20:00
10:50 AM,62.6,44.6,52,29.95,6.2,West,17.3,28.8,N/A,,Scattered Clouds,280,2013-05-26 08:50:00
11:20 AM,62.6,44.6,52,29.95,6.2,West,16.1,-,N/A,,Partly Cloudy,280,2013-05-26 09:20:00
11:50 AM,62.6,42.8,48,29.98,6.2,West,16.1,-,N/A,,Partly Cloudy,280,2013-05-26 09:50:00
12:20 PM,62.6,44.6,52,29.98,6.2,WNW,17.3,-,N/A,,Partly Cloudy,290,2013-05-26 10:20:00
12:50 PM,64.4,44.6,49,29.98,6.2,West,16.1,29.9,N/A,,Scattered Clouds,260,2013-05-26 10:50:00
1:20 PM,64.4,46.4,52,29.98,6.2,West,16.1,-,N/A,,Scattered Clouds,260,2013-05-26 11:20:00
1:50 PM,64.4,48.2,56,29.98,6.2,West,16.1,-,N/A,,Scattered Clouds,270,2013-05-26 11:50:00
2:20 PM,64.4,44.6,49,29.98,6.2,West,16.1,-,N/A,,Partly Cloudy,260,2013-05-26 12:20:00
2:50 PM,66.2,42.8,43,29.98,6.2,West,16.1,-,N/A,,Partly Cloudy,270,2013-05-26 12:50:00
3:20 PM,66.2,44.6,46,29.98,6.2,WSW,17.3,-,N/A,,Partly Cloudy,250,2013-05-26 13:20:00
3:50 PM,66.2,42.8,43,29.98,6.2,WSW,18.4,-,N/A,,Partly Cloudy,250,2013-05-26 13:50:00
4:20 PM,64.4,41.0,42,29.98,6.2,West,15.0,-,N/A,,Partly Cloudy,270,2013-05-26 14:20:00
4:50 PM,66.2,44.6,46,29.98,6.2,West,15.0,-,N/A,,Partly Cloudy,260,2013-05-26 14:50:00
5:20 PM,64.4,41.0,42,29.98,6.2,West,15.0,-,N/A,,Partly Cloudy,270,2013-05-26 15:20:00
5:50 PM,64.4,42.8,45,29.98,6.2,West,12.7,-,N/A,,Partly Cloudy,260,2013-05-26 15:50:00
6:20 PM,64.4,42.8,45,29.98,6.2,West,12.7,-,N/A,,Partly Cloudy,260,2013-05-26 16:20:00
6:50 PM,62.6,44.6,52,30.01,6.2,WSW,11.5,-,N/A,,Partly Cloudy,250,2013-05-26 16:50:00
7:20 PM,-9999,-9999,N/A,-9999,6.2,West,10.4,-,N/A,,Unknown,260,2013-05-26 17:20:00
7:50 PM,60.8,44.6,55,30.01,6.2,West,10.4,-,N/A,,Partly Cloudy,260,2013-05-26 17:50:00
8:20 PM,60.8,46.4,59,30.01,6.2,WSW,8.1,-,N/A,,Partly Cloudy,250,2013-05-26 18:20:00
8:50 PM,59.0,48.2,67,30.01,6.2,WSW,9.2,-,N/A,,Partly Cloudy,250,2013-05-26 18:50:00
9:20 PM,59.0,48.2,67,30.01,6.2,West,8.1,-,N/A,,Partly Cloudy,260,2013-05-26 19:20:00
9:50 PM,59.0,48.2,67,30.04,-9999.0,North,-9999.0,-,N/A,,Unknown,0,2013-05-26 19:50:00
10:00 PM,59.0,48.2,67,30.04,-9999.0,North,-9999.0,-,N/A,,Unknown,0,2013-05-26 20:00:00
10:20 PM,59.0,50.0,72,30.04,6.2,WSW,8.1,-,N/A,,Partly Cloudy,240,2013-05-26 20:20:00
10:50 PM,59.0,48.2,67,30.04,6.2,WSW,5.8,-,N/A,,Partly Cloudy,240,2013-05-26 20:50:00
11:20 PM,59.0,48.2,67,30.04,6.2,SSW,3.5,-,N/A,,Partly Cloudy,210,2013-05-26 21:20:00
11:50 PM,59.0,50.0,72,30.04,6.2,SW,4.6,-,N/A,,Partly Cloudy,230,2013-05-26 21:50:00